AFL1525 ULLI-UMKK

Flight info

Callsign AFL1525
Flight time N/A
Altitude 36000
Route UTETA1B UTETA DCT PISIS DCT ARANS/N0449F360 DCT PIDIN DCT PISIM DCT PIRUX DCT PIVAX/N0446F370 DCT GARSO DCT AGONA DCT TURIP TURIP3F
Aircraft A320/M-SDE3FGHIRWY/LB1

Departure

Time N/A
Airport Pulkovo Airport (ULLI)

Arrival

Time 2026-05-08 07:33
Airport Khrabrovo Airport (UMKK)
Time Latitude Longitude Altitude Speed Heading
2026-05-08 07:07 55.09566 20.46585 18442 ft 311 kts 74°
2026-05-08 07:07 55.10706 20.49889 17541 ft 329 kts 52°
2026-05-08 07:07 55.12215 20.52971 16817 ft 335 kts 50°
2026-05-08 07:08 55.13725 20.56026 16556 ft 327 kts 52°
2026-05-08 07:08 55.15187 20.58982 16426 ft 315 kts 52°
2026-05-08 07:08 55.16495 20.61963 16287 ft 302 kts 62°
2026-05-08 07:08 55.17312 20.65264 16160 ft 290 kts 75°
2026-05-08 07:09 55.17635 20.68666 16033 ft 279 kts 91°
2026-05-08 07:09 55.17506 20.71984 15878 ft 270 kts 101°
2026-05-08 07:09 55.16990 20.75066 15621 ft 267 kts 112°
2026-05-08 07:09 55.16312 20.78076 15358 ft 265 kts 115°
2026-05-08 07:10 55.15417 20.80871 15101 ft 262 kts 125°
2026-05-08 07:10 55.14267 20.83315 14868 ft 260 kts 134°
2026-05-08 07:10 55.12904 20.85400 14576 ft 261 kts 141°
2026-05-08 07:10 55.11490 20.87385 14312 ft 260 kts 140°
2026-05-08 07:11 55.10084 20.89363 14022 ft 260 kts 140°
2026-05-08 07:11 55.08610 20.91203 13729 ft 260 kts 150°
2026-05-08 07:11 55.06909 20.92239 13461 ft 261 kts 169°
2026-05-08 07:11 55.05098 20.92064 13169 ft 265 kts 193°
2026-05-08 07:12 55.03486 20.90526 12854 ft 268 kts 221°
2026-05-08 07:12 55.02426 20.87852 12515 ft 272 kts 249°
2026-05-08 07:12 55.02089 20.84671 12205 ft 272 kts 264°
2026-05-08 07:12 55.01918 20.81366 11810 ft 275 kts 264°
2026-05-08 07:13 55.01748 20.78040 11498 ft 274 kts 265°
2026-05-08 07:13 55.01576 20.74753 11261 ft 271 kts 264°
2026-05-08 07:13 55.01403 20.71471 11171 ft 272 kts 264°
2026-05-08 07:13 55.01230 20.68203 11177 ft 270 kts 264°
2026-05-08 07:14 55.01025 20.64950 11181 ft 271 kts 259°
2026-05-08 07:14 55.00548 20.61773 11189 ft 273 kts 249°
2026-05-08 07:14 54.99803 20.58751 11191 ft 272 kts 244°
2026-05-08 07:14 54.99018 20.55743 11191 ft 273 kts 244°
2026-05-08 07:15 54.98233 20.52737 11190 ft 272 kts 244°
2026-05-08 07:15 54.97453 20.49734 11189 ft 273 kts 245°
2026-05-08 07:15 54.96676 20.46734 11190 ft 271 kts 244°
2026-05-08 07:15 54.95904 20.43751 11189 ft 268 kts 244°
2026-05-08 07:16 54.95155 20.40867 11157 ft 255 kts 245°
2026-05-08 07:16 54.94439 20.38096 11029 ft 247 kts 244°
2026-05-08 07:16 54.93760 20.35409 10902 ft 238 kts 244°
2026-05-08 07:16 54.93101 20.32805 10780 ft 232 kts 244°
2026-05-08 07:17 54.92455 20.30290 10649 ft 225 kts 243°
2026-05-08 07:17 54.91792 20.27845 10420 ft 223 kts 239°
2026-05-08 07:17 54.90919 20.25665 10232 ft 218 kts 226°
2026-05-08 07:17 54.89820 20.23877 9949 ft 216 kts 213°
2026-05-08 07:18 54.88551 20.22530 9692 ft 213 kts 201°
2026-05-08 07:18 54.87193 20.21609 9409 ft 212 kts 195°
2026-05-08 07:18 54.85788 20.20731 9143 ft 211 kts 195°
2026-05-08 07:18 54.84421 20.19893 8893 ft 211 kts 198°
2026-05-08 07:19 54.83156 20.18568 8613 ft 214 kts 214°
2026-05-08 07:19 54.82145 20.16673 8347 ft 217 kts 240°
2026-05-08 07:19 54.81496 20.14331 8210 ft 214 kts 246°
2026-05-08 07:19 54.80921 20.11961 8025 ft 213 kts 247°
2026-05-08 07:20 54.80357 20.09595 7881 ft 211 kts 248°
2026-05-08 07:20 54.79797 20.07250 7644 ft 209 kts 248°
2026-05-08 07:20 54.79237 20.04914 7306 ft 211 kts 248°
2026-05-08 07:20 54.78740 20.02529 6985 ft 210 kts 265°
2026-05-08 07:21 54.78954 20.00125 6698 ft 199 kts 306°
2026-05-08 07:21 54.79896 19.98586 6389 ft 180 kts 348°
2026-05-08 07:21 54.81083 19.98209 6061 ft 172 kts
2026-05-08 07:21 54.82271 19.98140 5744 ft 171 kts
2026-05-08 07:22 54.83455 19.98116 5451 ft 170 kts
2026-05-08 07:22 54.84628 19.98138 5157 ft 165 kts 16°
2026-05-08 07:22 54.85619 19.98884 4981 ft 150 kts 45°
2026-05-08 07:22 54.86200 20.00347 4713 ft 151 kts 73°
2026-05-08 07:23 54.86223 20.02162 4576 ft 154 kts 99°
2026-05-08 07:23 54.85657 20.03775 4442 ft 164 kts 130°
2026-05-08 07:23 54.84773 20.05025 4324 ft 163 kts 131°
2026-05-08 07:23 54.83906 20.06246 4175 ft 162 kts 131°
2026-05-08 07:24 54.83036 20.07477 4057 ft 161 kts 131°
2026-05-08 07:24 54.82164 20.08716 3871 ft 163 kts 131°
2026-05-08 07:24 54.81277 20.09981 3662 ft 166 kts 131°
2026-05-08 07:24 54.80381 20.11257 3451 ft 167 kts 131°
2026-05-08 07:25 54.79480 20.12538 3240 ft 168 kts 131°
2026-05-08 07:25 54.78578 20.13829 3054 ft 168 kts 128°
2026-05-08 07:25 54.78024 20.17250 2689 ft 150 kts 70°
2026-05-08 07:26 54.78448 20.18880 2533 ft 147 kts 65°
2026-05-08 07:26 54.78869 20.20476 2410 ft 145 kts 65°
2026-05-08 07:26 54.79285 20.22059 2278 ft 143 kts 65°
2026-05-08 07:26 54.79698 20.23631 2149 ft 143 kts 65°
2026-05-08 07:27 54.80109 20.25195 2070 ft 142 kts 65°
2026-05-08 07:27 54.80513 20.26731 2007 ft 141 kts 65°
2026-05-08 07:27 54.80918 20.28269 2004 ft 140 kts 65°
2026-05-08 07:27 54.81322 20.29805 2010 ft 140 kts 65°
2026-05-08 07:28 54.81729 20.31354 2011 ft 142 kts 65°
2026-05-08 07:28 54.82139 20.32925 1879 ft 143 kts 65°
2026-05-08 07:28 54.82547 20.34494 1792 ft 143 kts 65°
2026-05-08 07:28 54.82955 20.36060 1724 ft 142 kts 65°
2026-05-08 07:29 54.83363 20.37618 1709 ft 142 kts 65°
2026-05-08 07:29 54.83633 20.38651 1707 ft 141 kts 65°
2026-05-08 07:29 54.84008 20.40086 1699 ft 123 kts 64°
2026-05-08 07:29 54.84349 20.41387 1693 ft 115 kts 64°
2026-05-08 07:30 54.84675 20.42632 1692 ft 111 kts 66°
2026-05-08 07:30 54.84993 20.43851 1678 ft 111 kts 66°
2026-05-08 07:30 54.85310 20.45064 1594 ft 111 kts 65°
2026-05-08 07:30 54.85633 20.46295 1464 ft 112 kts 66°
2026-05-08 07:31 54.85950 20.47512 1317 ft 110 kts 64°
2026-05-08 07:31 54.86269 20.48735 1126 ft 111 kts 65°
2026-05-08 07:31 54.86584 20.49950 1025 ft 110 kts 64°
2026-05-08 07:31 54.86900 20.51171 859 ft 111 kts 64°
2026-05-08 07:32 54.87216 20.52385 695 ft 110 kts 63°
2026-05-08 07:32 54.87535 20.53604 583 ft 114 kts 63°
2026-05-08 07:32 54.87850 20.54819 438 ft 112 kts 63°
2026-05-08 07:32 54.88171 20.56042 268 ft 115 kts 64°
2026-05-08 07:33 54.88495 20.57283 98 ft 112 kts 63°
2026-05-08 07:33 54.88799 20.58463 28 ft 95 kts 64°
2026-05-08 07:33 54.89006 20.59248 28 ft 54 kts 65°
2026-05-08 07:33 54.89129 20.59713 23 ft 38 kts 64°
2026-05-08 07:34 54.89232 20.60111 22 ft 35 kts 66°
2026-05-08 07:34 54.89328 20.60484 24 ft 34 kts 68°
2026-05-08 07:34 54.89424 20.60863 22 ft 34 kts 65°
2026-05-08 07:34 54.89527 20.61246 21 ft 35 kts 66°
2026-05-08 07:35 54.89626 20.61634 23 ft 35 kts 66°
2026-05-08 07:35 54.89721 20.62006 26 ft 27 kts 66°
2026-05-08 07:35 54.89733 20.62178 24 ft 10 kts 83°
2026-05-08 07:35 54.89774 20.62187 27 ft 7 kts 295°
2026-05-08 07:36 54.89748 20.62106 26 ft 11 kts 238°
2026-05-08 07:36 54.89710 20.61959 27 ft 14 kts 246°
2026-05-08 07:36 54.89670 20.61798 26 ft 15 kts 246°
2026-05-08 07:36 54.89624 20.61623 23 ft 16 kts 245°
2026-05-08 07:37 54.89575 20.61436 22 ft 19 kts 246°
2026-05-08 07:37 54.89508 20.61178 21 ft 27 kts 246°
2026-05-08 07:37 54.89421 20.60842 24 ft 33 kts 246°
2026-05-08 07:37 54.89325 20.60457 23 ft 36 kts 245°
2026-05-08 07:38 54.89214 20.60034 21 ft 41 kts 246°
2026-05-08 07:38 54.89105 20.59609 24 ft 32 kts 244°
2026-05-08 07:38 54.89025 20.59321 27 ft 27 kts 241°
2026-05-08 07:38 54.88932 20.59139 28 ft 13 kts 215°
2026-05-08 07:39 54.88851 20.59061 26 ft 13 kts 206°
2026-05-08 07:39 54.88770 20.58992 26 ft 10 kts 207°
2026-05-08 07:39 54.88759 20.58983 26 ft 0 kts 207°
2026-05-08 07:39 54.88737 20.58961 27 ft 12 kts 214°
2026-05-08 07:40 54.88693 20.58838 27 ft 12 kts 249°
2026-05-08 07:40 54.88652 20.58746 27 ft 9 kts 182°
2026-05-08 07:40 54.88600 20.58747 27 ft 7 kts 231°
2026-05-08 07:40 54.88576 20.58647 27 ft 10 kts 245°
2026-05-08 07:41 54.88547 20.58535 27 ft 11 kts 246°
2026-05-08 07:41 54.88517 20.58420 27 ft 11 kts 246°
2026-05-08 07:41 54.88479 20.58326 27 ft 9 kts 194°
2026-05-08 07:41 54.88431 20.58362 27 ft 6 kts 147°
2026-05-08 07:42 54.88411 20.58407 27 ft 7 kts 118°
2026-05-08 07:42 54.88389 20.58450 27 ft 4 kts 149°
2026-05-08 07:42 54.88374 20.58463 27 ft 2 kts 152°
2026-05-08 07:42 54.88361 20.58473 27 ft 1 kts 154°
2026-05-08 07:43 54.88361 20.58474 27 ft 0 kts 154°